Location: Newark
(44.1667°N, 8.2500°E)
Time: 04:39:09
(UTC+00:00)

Envisat - Pass Details

Date: 19 November 2019
Orbit: 764 x 766 km, 98.1° (Epoch: 09 December)

Event Time Altitude Azimuth Distance (km) Brightness Sun altitude
Rises 17:14:54 0° 161° (SSE) 3,219 6.2 -13.9°
Reaches altitude 10° 17:17:11 10° 161° (SSE) 2,297 5.4 -14.3°
Maximum altitude 17:22:15 80° 75° (ENE) 784 2.9 -15.2°
Drops below altitude 10° 17:27:21 10° 349° (N) 2,312 5.5 -16.1°
Sets 17:29:40 0° 348° (NNW) 3,243 6.3 -16.5°
